Retour au catalogue

STARLINK-36402

ActifCommunicationsVLEO
NORAD 68966·PAYLOAD·🇺🇸 United States

Lancé May 1, 2026 depuis Cape Canaveral Space Force Station

Loading…

Prochains Passages (prochaines 24 heures)

TLE

FraisSource: CelesTrak SupGP

Époque: Sep 15, 2026, 02:52 UTC

1 68966C 26099R   26258.11993056  .00001463  00000+0  43221-4 0  2585
2 68966  53.1570 100.8630 0001283  90.5451 121.9267 15.34382893    19

Suivez STARLINK-36402 en temps réel avec AllMySat

Download on the App Store